DLH44C EDDF-LPPR

Flight info

Callsign DLH44C
Flight time N/A
Altitude 35000
Route SOBRA2L/18 SOBRA Y180 DIK UN857 TOLVU DCT RAPOR DCT GIMER DCT ESTOC UT300 PON UN872 GODIX/N0427F310 UN872 DIDAK/N0445F370 UN872 TERPO/N0441F350 UN872 ERIGA UZ218 FUJTI DCT ATLEN DCT INSID T326 ASPOR
Aircraft A320/M-SDE2E3FGIJ1LORWXYZ/HB1

Departure

Time 2026-04-15 11:38
Airport Frankfurt Main Airport (EDDF)

Arrival

Time N/A
Airport Francisco de Sá Carneiro Airport (LPPR)
Time Latitude Longitude Altitude Speed Heading
2026-04-15 10:52 50.04802 8.56916 356 ft 0 kts 294°
2026-04-15 10:52 50.04852 8.56946 356 ft 0 kts 295°
2026-04-15 11:25 50.04844 8.56974 362 ft 4 kts 293°
2026-04-15 11:25 50.04833 8.57011 356 ft 4 kts 289°
2026-04-15 11:25 50.04831 8.57048 363 ft 4 kts 240°
2026-04-15 11:26 50.04846 8.57071 357 ft 0 kts 204°
2026-04-15 11:26 50.04829 8.57059 356 ft 4 kts 205°
2026-04-15 11:26 50.04804 8.57042 356 ft 4 kts 205°
2026-04-15 11:26 50.04792 8.57034 356 ft 0 kts 205°
2026-04-15 11:31 50.04780 8.57024 363 ft 6 kts 205°
2026-04-15 11:31 50.04736 8.56992 356 ft 10 kts 205°
2026-04-15 11:32 50.04635 8.56923 360 ft 20 kts 198°
2026-04-15 11:32 50.04500 8.56875 359 ft 20 kts 191°
2026-04-15 11:32 50.04363 8.56833 363 ft 20 kts 191°
2026-04-15 11:32 50.04241 8.56740 366 ft 21 kts 239°
2026-04-15 11:33 50.04190 8.56535 358 ft 21 kts 249°
2026-04-15 11:33 50.04134 8.56314 355 ft 23 kts 250°
2026-04-15 11:33 50.04077 8.56071 353 ft 25 kts 250°
2026-04-15 11:33 50.04016 8.55811 355 ft 26 kts 250°
2026-04-15 11:34 50.03955 8.55535 354 ft 27 kts 252°
2026-04-15 11:34 50.03891 8.55253 354 ft 28 kts 239°
2026-04-15 11:34 50.03817 8.54979 348 ft 28 kts 249°
2026-04-15 11:34 50.03747 8.54691 351 ft 29 kts 250°
2026-04-15 11:35 50.03678 8.54386 342 ft 30 kts 249°
2026-04-15 11:35 50.03603 8.54083 349 ft 30 kts 249°
2026-04-15 11:35 50.03533 8.53789 338 ft 28 kts 249°
2026-04-15 11:35 50.03478 8.53548 338 ft 16 kts 270°
2026-04-15 11:36 50.03561 8.53509 340 ft 15 kts 18°
2026-04-15 11:36 50.03605 8.53419 340 ft 13 kts 249°
2026-04-15 11:36 50.03575 8.53296 335 ft 12 kts 250°
2026-04-15 11:36 50.03533 8.53122 335 ft 21 kts 249°
2026-04-15 11:37 50.03479 8.52904 332 ft 22 kts 249°
2026-04-15 11:37 50.03419 8.52674 332 ft 20 kts 248°
2026-04-15 11:37 50.03357 8.52589 332 ft 12 kts 175°
2026-04-15 11:37 50.03253 8.52594 334 ft 32 kts 179°
2026-04-15 11:38 50.02773 8.52601 335 ft 102 kts 179°
2026-04-15 11:38 50.01873 8.52610 334 ft 154 kts 179°
2026-04-15 11:38 50.00709 8.52616 636 ft 173 kts 179°
2026-04-15 11:38 49.99474 8.52635 1222 ft 179 kts 178°
2026-04-15 11:39 49.98209 8.52709 1824 ft 190 kts 177°
2026-04-15 11:39 49.96813 8.52812 2173 ft 212 kts 176°
2026-04-15 11:39 49.95276 8.52929 2560 ft 230 kts 176°
2026-04-15 11:39 49.93672 8.53049 3347 ft 231 kts 176°
2026-04-15 11:40 49.92061 8.53167 4172 ft 232 kts 176°
2026-04-15 11:40 49.90446 8.53279 5006 ft 234 kts 176°
2026-04-15 11:40 49.88811 8.53391 5812 ft 236 kts 176°
2026-04-15 11:40 49.87162 8.53306 6556 ft 240 kts 191°
2026-04-15 11:41 49.85495 8.52503 6945 ft 263 kts 199°
2026-04-15 11:41 49.83732 8.51511 7538 ft 274 kts 199°
2026-04-15 11:41 49.81928 8.50479 8328 ft 278 kts 199°
2026-04-15 11:41 49.80107 8.49434 9118 ft 280 kts 199°
2026-04-15 11:42 49.78319 8.48193 9879 ft 285 kts 213°
2026-04-15 11:42 49.76885 8.46046 10485 ft 297 kts 235°
2026-04-15 11:42 49.76079 8.42999 10697 ft 321 kts 261°
2026-04-15 11:42 49.76231 8.39494 11130 ft 334 kts 284°
2026-04-15 11:43 49.76817 8.35983 11806 ft 339 kts 284°
2026-04-15 11:43 49.77402 8.32429 12516 ft 342 kts 284°
2026-04-15 11:43 49.77981 8.28841 13226 ft 345 kts 284°
2026-04-15 11:43 49.78559 8.25218 13893 ft 348 kts 283°
2026-04-15 11:44 49.79142 8.21568 14558 ft 351 kts 284°
2026-04-15 11:44 49.79729 8.17889 15208 ft 353 kts 284°
2026-04-15 11:44 49.80322 8.14184 15835 ft 356 kts 284°
2026-04-15 11:44 49.80916 8.10448 16432 ft 359 kts 284°
2026-04-15 11:45 49.81511 8.06682 17027 ft 362 kts 284°
2026-04-15 11:45 49.82111 8.02887 17609 ft 364 kts 284°
2026-04-15 11:45 49.82717 7.99063 18174 ft 367 kts 284°
2026-04-15 11:45 49.83329 7.95210 18743 ft 370 kts 284°
2026-04-15 11:46 49.83940 7.91333 19296 ft 373 kts 284°
2026-04-15 11:46 49.84551 7.87418 19844 ft 375 kts 284°
2026-04-15 11:46 49.85166 7.83473 20360 ft 378 kts 284°
2026-04-15 11:46 49.85784 7.79495 20897 ft 381 kts 284°
2026-04-15 11:47 49.86408 7.75489 21406 ft 384 kts 284°
2026-04-15 11:47 49.87043 7.71454 21909 ft 387 kts 284°
2026-04-15 11:47 49.87674 7.67445 22385 ft 389 kts 284°
2026-04-15 11:47 49.88313 7.63349 22859 ft 392 kts 284°
2026-04-15 11:48 49.88954 7.59223 23326 ft 395 kts 284°
2026-04-15 11:48 49.89595 7.55064 23768 ft 398 kts 284°
2026-04-15 11:48 49.90238 7.50887 24215 ft 400 kts 284°
2026-04-15 11:48 49.90884 7.46675 24650 ft 402 kts 284°
2026-04-15 11:49 49.91532 7.42440 25065 ft 404 kts 284°
2026-04-15 11:49 49.92179 7.38185 25478 ft 406 kts 285°
2026-04-15 11:49 49.92828 7.33915 25882 ft 407 kts 285°
2026-04-15 11:49 49.93478 7.29627 26267 ft 409 kts 285°
2026-04-15 11:50 49.94127 7.25322 26647 ft 410 kts 285°
2026-04-15 11:50 49.94775 7.21000 27013 ft 412 kts 285°
2026-04-15 11:50 49.95423 7.16660 27374 ft 413 kts 285°
2026-04-15 11:50 49.96075 7.12304 27709 ft 415 kts 285°
2026-04-15 11:51 49.96730 7.07931 28045 ft 416 kts 285°
2026-04-15 11:51 49.97386 7.03544 28380 ft 418 kts 285°
2026-04-15 11:51 49.97819 7.00632 28594 ft 419 kts 286°
2026-04-15 11:51 49.98476 6.96216 28914 ft 420 kts 286°
2026-04-15 11:52 49.99071 6.91761 29216 ft 423 kts 281°
2026-04-15 11:52 49.99241 6.87171 29505 ft 429 kts 271°
2026-04-15 11:52 49.99100 6.82529 29785 ft 430 kts 271°
2026-04-15 11:52 49.98957 6.77880 30072 ft 431 kts 271°
2026-04-15 11:53 49.98815 6.73229 30342 ft 432 kts 271°
2026-04-15 11:53 49.98675 6.68547 30599 ft 433 kts 271°
2026-04-15 11:53 49.98535 6.63873 30846 ft 434 kts 271°
2026-04-15 11:53 49.98334 6.59177 31079 ft 438 kts 266°
2026-04-15 11:54 49.97701 6.54527 31326 ft 443 kts 256°
2026-04-15 11:54 49.96592 6.50050 31636 ft 445 kts 250°
2026-04-15 11:54 49.95353 6.45648 31957 ft 444 kts 250°
2026-04-15 11:54 49.94120 6.41255 32267 ft 443 kts 250°
2026-04-15 11:55 49.92891 6.36875 32582 ft 442 kts 250°
2026-04-15 11:55 49.91660 6.32506 32882 ft 441 kts 250°
2026-04-15 11:55 49.90430 6.28150 33176 ft 440 kts 251°
2026-04-15 11:55 49.89181 6.23813 33469 ft 440 kts 250°
2026-04-15 11:56 49.87929 6.19492 33756 ft 439 kts 250°
2026-04-15 11:56 49.86696 6.15172 34036 ft 438 kts 249°
2026-04-15 11:56 49.85208 6.11024 34297 ft 443 kts 240°
2026-04-15 11:56 49.83438 6.07107 34531 ft 444 kts 239°
2026-04-15 11:57 49.81677 6.03254 34747 ft 444 kts 239°
2026-04-15 11:57 49.78069 5.95426 35167 ft 444 kts 239°
2026-04-15 11:58 49.74601 5.87639 35220 ft 433 kts 246°
2026-04-15 11:58 49.72368 5.79193 35220 ft 426 kts 255°
2026-04-15 11:59 49.70375 5.70577 35220 ft 426 kts 255°
2026-04-15 11:59 49.68362 5.61968 35220 ft 426 kts 255°
2026-04-15 12:00 49.66345 5.53362 35219 ft 426 kts 255°
2026-04-15 12:00 49.64326 5.44766 35220 ft 426 kts 255°
2026-04-15 12:01 49.62297 5.36179 35219 ft 426 kts 255°
2026-04-15 12:01 49.60397 5.27558 35220 ft 424 kts 256°
2026-04-15 12:02 49.58616 5.18891 35219 ft 423 kts 258°
2026-04-15 12:02 49.57068 5.10157 35217 ft 422 kts 259°
2026-04-15 12:03 49.55598 5.01409 35213 ft 422 kts 259°
2026-04-15 12:03 49.54070 4.92683 35213 ft 422 kts 258°
2026-04-15 12:04 49.52507 4.83979 35221 ft 421 kts 256°
2026-04-15 12:04 49.50942 4.75321 35233 ft 419 kts 256°
2026-04-15 12:05 49.49381 4.66715 35234 ft 416 kts 256°
2026-04-15 12:05 49.47823 4.58158 35230 ft 415 kts 256°
2026-04-15 12:06 49.46263 4.49619 35230 ft 414 kts 256°
2026-04-15 12:06 49.44694 4.41103 35230 ft 414 kts 256°
2026-04-15 12:07 49.43125 4.32596 35228 ft 413 kts 255°
2026-04-15 12:07 49.41557 4.24115 35225 ft 413 kts 255°
2026-04-15 12:08 49.39988 4.15640 35223 ft 412 kts 255°
2026-04-15 12:08 49.38411 4.07187 35222 ft 412 kts 255°
2026-04-15 12:09 49.36815 3.98757 35221 ft 412 kts 255°
2026-04-15 12:09 49.35402 3.90324 35224 ft 410 kts 258°
2026-04-15 12:10 49.34247 3.81763 35225 ft 410 kts 259°
2026-04-15 12:10 49.33098 3.73189 35220 ft 409 kts 258°
2026-04-15 12:11 49.31881 3.64678 35217 ft 409 kts 258°
2026-04-15 12:11 49.30641 3.56237 35213 ft 409 kts 258°
2026-04-15 12:12 49.29396 3.47743 35209 ft 409 kts 257°
2026-04-15 12:12 49.28146 3.39250 35207 ft 408 kts 257°
2026-04-15 12:13 49.26895 3.30779 35203 ft 408 kts 257°
2026-04-15 12:13 49.25640 3.22325 35201 ft 408 kts 257°